TimeCST,TemperatureF,Dew PointF,Humidity,Sea Level PressureIn,VisibilityMPH,Wind Direction,Wind SpeedMPH,Gust SpeedMPH,PrecipitationIn,Events,Conditions,WindDirDegrees,DateUTC
12:53 AM,55.0,53.1,93,30.14,6.0,Calm,Calm,-,N/A,,Overcast,0,2013-11-16 06:53:00
1:53 AM,55.0,53.1,93,30.13,6.0,East,4.6,-,N/A,,Overcast,100,2013-11-16 07:53:00
2:53 AM,55.9,54.0,93,30.12,7.0,NE,3.5,-,N/A,,Overcast,50,2013-11-16 08:53:00
3:32 AM,55.4,53.6,94,30.13,8.0,ESE,3.5,-,N/A,,Mostly Cloudy,120,2013-11-16 09:32:00
3:39 AM,55.4,53.6,94,30.13,7.0,ESE,4.6,-,N/A,,Partly Cloudy,110,2013-11-16 09:39:00
3:53 AM,55.0,53.1,93,30.13,6.0,ESE,4.6,-,N/A,,Clear,110,2013-11-16 09:53:00
4:53 AM,54.0,53.1,97,30.13,6.0,Calm,Calm,-,N/A,,Scattered Clouds,0,2013-11-16 10:53:00
5:53 AM,54.0,52.0,93,30.14,5.0,East,3.5,-,N/A,,Scattered Clouds,90,2013-11-16 11:53:00
6:08 AM,53.6,51.8,94,30.15,4.0,Calm,Calm,-,N/A,,Mostly Cloudy,0,2013-11-16 12:08:00
6:53 AM,55.0,53.1,93,30.15,3.0,ESE,5.8,-,N/A,,Overcast,110,2013-11-16 12:53:00
7:03 AM,55.4,53.6,94,30.16,4.0,East,5.8,-,N/A,,Overcast,80,2013-11-16 13:03:00
7:53 AM,55.9,54.0,93,30.17,5.0,ESE,6.9,-,N/A,,Overcast,120,2013-11-16 13:53:00
8:53 AM,57.9,55.9,93,30.17,6.0,SE,5.8,-,N/A,,Overcast,130,2013-11-16 14:53:00
9:53 AM,59.0,55.9,90,30.18,7.0,SSE,6.9,-,N/A,,Overcast,150,2013-11-16 15:53:00
10:53 AM,63.0,57.0,81,30.16,9.0,ESE,8.1,-,N/A,,Overcast,110,2013-11-16 16:53:00
11:02 AM,64.4,57.2,77,30.16,9.0,SE,10.4,-,N/A,,Mostly Cloudy,140,2013-11-16 17:02:00
11:15 AM,64.4,57.2,77,30.16,10.0,SE,9.2,-,N/A,,Mostly Cloudy,130,2013-11-16 17:15:00
11:26 AM,64.4,57.2,77,30.15,9.0,ESE,4.6,-,N/A,,Overcast,110,2013-11-16 17:26:00
11:39 AM,64.4,57.2,77,30.14,9.0,East,8.1,-,N/A,,Overcast,100,2013-11-16 17:39:00
11:53 AM,64.0,57.0,78,30.12,9.0,ESE,8.1,-,N/A,,Overcast,120,2013-11-16 17:53:00
12:35 PM,64.4,57.2,77,30.12,7.0,Variable,5.8,-,N/A,,Overcast,0,2013-11-16 18:35:00
12:53 PM,64.0,57.0,78,30.10,7.0,ESE,5.8,-,N/A,,Overcast,110,2013-11-16 18:53:00
1:06 PM,64.4,57.2,77,30.11,7.0,SE,4.6,-,N/A,,Overcast,130,2013-11-16 19:06:00
1:53 PM,66.0,57.9,75,30.09,8.0,SE,8.1,-,N/A,,Overcast,130,2013-11-16 19:53:00
2:53 PM,66.0,59.0,78,30.08,8.0,SE,8.1,-,N/A,,Overcast,130,2013-11-16 20:53:00
3:25 PM,66.2,59.0,78,30.09,8.0,ESE,5.8,-,N/A,,Overcast,120,2013-11-16 21:25:00
3:53 PM,64.9,59.0,81,30.08,8.0,ESE,5.8,-,N/A,,Overcast,120,2013-11-16 21:53:00
4:18 PM,64.4,59.0,83,30.08,8.0,ESE,8.1,-,N/A,,Overcast,110,2013-11-16 22:18:00
4:53 PM,64.9,59.0,81,30.06,9.0,SE,12.7,-,N/A,,Overcast,130,2013-11-16 22:53:00
5:53 PM,64.0,57.9,80,30.09,10.0,ESE,8.1,-,N/A,,Overcast,110,2013-11-16 23:53:00
6:53 PM,63.0,57.0,81,30.09,10.0,ESE,9.2,-,N/A,,Overcast,120,2013-11-17 00:53:00
7:53 PM,63.0,57.9,84,30.11,10.0,ESE,8.1,-,N/A,,Overcast,110,2013-11-17 01:53:00
8:53 PM,63.0,57.0,81,30.11,10.0,East,4.6,-,N/A,,Overcast,100,2013-11-17 02:53:00
9:53 PM,63.0,57.0,81,30.10,10.0,SE,12.7,-,N/A,,Overcast,130,2013-11-17 03:53:00
10:53 PM,63.0,57.0,81,30.09,10.0,SE,8.1,-,N/A,,Overcast,130,2013-11-17 04:53:00
11:53 PM,64.0,57.9,80,30.07,10.0,SE,6.9,-,N/A,,Overcast,130,2013-11-17 05:53:00